Location: Clover
(42.5131°N, 114.6874°W)
Time: 18:56:15
(UTC+00:00)

S-56A Canister/Altair - Visible Passes

Search period start: 11 December 2025 00:00
Search period end: 21 December 2025 00:00
Orbit: 632 x 2485 km, 38.9° (Epoch: 10 December)

Date Brightness Start Highest point End Pass type
(mag) Time Alt. Az. Time Alt. Az. Time Alt. Az.
11 Dec 10.8 11:11:06 18° S 11:11:06 18° S 11:14:52 10° SSE visible
12 Dec 11.1 10:38:26 13° SSE 10:38:26 13° SSE 10:39:43 10° SSE visible
14 Dec 9.8 03:07:54 10° SSW 03:08:09 11° SSW 03:08:09 11° SSW visible
15 Dec 9.2 02:33:38 10° SSW 02:35:22 17° S 02:35:22 17° S visible
16 Dec 9.0 01:59:24 10° S 02:02:18 17° SSE 02:02:33 17° SE visible
17 Dec 9.2 01:25:14 10° S 01:27:42 14° SSE 01:29:44 11° ESE visible
17 Dec 9.8 03:26:15 10° WSW 03:26:59 14° SW 03:26:59 14° SW visible
18 Dec 9.4 00:51:13 10° S 00:53:03 12° SSE 00:54:48 10° SE visible
18 Dec 8.8 02:51:40 10° SW 02:54:09 27° SSW 02:54:09 27° SSW visible
19 Dec 8.1 02:17:02 10° SW 02:21:16 34° SSE 02:21:16 34° SSE visible
20 Dec 8.4 01:42:21 10° SW 01:46:40 31° SSE 01:48:24 23° ESE visible
20 Dec 10.1 03:45:18 10° WSW 03:45:40 12° WSW 03:45:40 12° WSW visible
